FW6587 Weather Reports


Display with metric or nautical units.
time (UTC)temp
F
wind
direction
speed
MPH
gust
MPH
rain 1hr
in
rain 24hr
in
rain mn
in
humidity
%
barometer
mb
20260508200055 67 40 1.0 9.0 0.00 0.00 0.00 42 1024.9
20260508194549 67 0 1.0 7.0 0.00 0.00 0.00 40 1024.9
20260508193125 67 0 2.0 8.0 0.00 0.00 0.00 43 1025.0
20260508191555 67 138 1.0 8.0 0.00 0.00 0.00 42 1025.1
20260508190058 65 61 1.0 7.0 0.00 0.00 0.00 44 1025.1
20260508184614 65 111 3.0 10.0 0.00 0.00 0.00 44 1025.3
20260508183051 65 103 3.0 10.0 0.00 0.00 0.00 43 1025.5
20260508181552 63 0 0.0 6.0 0.00 0.00 0.00 45 1025.5
20260508180100 66 136 2.0 7.0 0.00 0.00 0.00 40 1025.7
20260508174615 65 149 2.0 9.0 0.00 0.00 0.00 43 1025.9
20260508173103 64 149 1.0 7.0 0.00 0.00 0.00 46 1026.0
20260508171610 63 105 1.0 5.0 0.00 0.00 0.00 48 1026.0
20260508170053 63 80 2.0 9.0 0.00 0.00 0.00 46 1026.1
20260508164554 62 109 2.0 7.0 0.00 0.00 0.00 50 1026.0
20260508163057 62 86 2.0 8.0 0.00 0.00 0.00 50 1025.9
20260508161600 61 122 2.0 10.0 0.00 0.00 0.00 52 1026.0
20260508160100 61 0 1.0 8.0 0.00 0.00 0.00 51 1026.1
20260508154553 59 0 1.0 6.0 0.00 0.00 0.00 57 1026.2
20260508153052 59 258 2.0 6.0 0.00 0.00 0.00 53 1026.0
20260508151558 58 255 1.0 5.0 0.00 0.00 0.00 57 1026.3
20260508150053 56 0 1.0 8.0 0.00 0.00 0.00 61 1026.2
20260508144550 54 0 0.0 5.0 0.00 0.00 0.00 66 1026.4
20260508143100 53 88 0.0 6.0 0.00 0.00 0.00 70 1026.8
20260508141554 52 0 1.0 4.0 0.00 0.00 0.00 76 1026.9
20260508140108 50 0 0.0 4.0 0.00 0.00 0.00 80 1027.0
20260508134606 49 0 0.0 3.0 0.00 0.01 0.00 83 1027.1
20260508133109 47 0 0.0 3.0 0.00 0.01 0.00 85 1027.1
20260508131554 45 0 0.0 4.0 0.00 0.01 0.00 86 1027.2
20260508130100 44 0 0.0 2.0 0.00 0.01 0.00 86 1027.1
20260508124553 43 0 0.0 0.0 0.00 0.01 0.00 85 1027.2
20260508123056 43 0 0.0 0.0 0.00 0.01 0.00 85 1027.3
20260508121557 42 0 0.0 0.0 0.00 0.01 0.00 84 1026.8
20260508120056 41 0 0.0 0.0 0.00 0.01 0.00 83 1026.0
20260508114606 41 0 0.0 0.0 0.00 0.01 0.00 83 1026.0
20260508113101 41 0 0.0 0.0 0.00 0.01 0.00 82 1026.0
20260508111601 42 0 0.0 0.0 0.00 0.01 0.00 82 1025.6
20260508110058 42 0 0.0 1.0 0.00 0.01 0.00 81 1025.5
20260508104557 42 0 0.0 5.0 0.00 0.02 0.00 81 1025.3
20260508103054 43 55 1.0 3.0 0.00 0.02 0.00 80 1024.9
20260508101551 43 0 0.0 2.0 0.00 0.02 0.00 80 1024.5
20260508100056 43 0 0.0 0.0 0.00 0.02 0.00 79 1024.7
20260508094607 44 0 0.0 0.0 0.00 0.02 0.00 78 1024.6
20260508093055 44 0 0.0 0.0 0.00 0.02 0.00 78 1024.7
20260508091614 44 0 0.0 0.0 0.00 0.02 0.00 78 1024.8
20260508090106 45 0 0.0 0.0 0.00 0.02 0.00 77 1024.8
20260508084553 45 0 0.0 2.0 0.00 0.02 0.00 76 1024.8
20260508083052 45 0 0.0 1.0 0.00 0.02 0.00 75 1025.1
20260508081551 46 0 0.0 1.0 0.00 0.02 0.00 74 1025.1
20260508080047 46 0 0.0 1.0 0.00 0.02 0.00 72 1025.3
20260508074551 46 0 0.0 0.0 0.00 0.02 0.00 71 1025.6
20260508073053 47 0 0.0 2.0 0.00 0.02 0.00 69 1025.5
20260508071554 48 0 0.0 1.0 0.00 0.02 0.00 66 1025.2
20260508070053 49 0 0.0 0.0 0.00 0.02 0.00 65 1025.1
20260508064555 50 0 0.0 0.0 0.00 0.02 0.00 63 1025.3
20260508063118 51 0 0.0 0.0 0.00 0.02 0.00 62 1025.3
20260508061555 52 0 0.0 0.0 0.00 0.02 0.00 62 1025.1
20260508060058 52 0 0.0 3.0 0.00 0.02 0.00 62 1025.1
20260508054555 52 360 1.0 6.0 0.00 0.02 0.02 62 1025.5
20260508053059 53 0 0.0 0.0 0.00 0.02 0.02 60 1025.2
20260508051616 53 0 0.0 2.0 0.00 0.02 0.02 59 1024.8
20260508050054 54 0 0.0 0.0 0.00 0.02 0.02 57 1024.7
20260508044551 54 0 0.0 0.0 0.00 0.02 0.02 57 1024.5
20260508043052 55 59 1.0 4.0 0.00 0.02 0.02 56 1024.7
20260508041554 55 42 0.0 4.0 0.00 0.02 0.02 54 1024.9
20260508040052 56 0 0.0 0.0 0.00 0.02 0.02 52 1024.0
20260508034552 56 0 0.0 0.0 0.00 0.02 0.02 50 1024.0
20260508033053 57 0 0.0 0.0 0.00 0.02 0.02 49 1023.9
20260508031601 57 0 1.0 3.0 0.00 0.02 0.02 49 1023.8
20260508030057 57 338 0.0 3.0 0.00 0.02 0.02 49 1023.7
20260508024549 58 306 0.0 5.0 0.00 0.02 0.02 47 1023.7
20260508023048 59 314 1.0 4.0 0.00 0.02 0.02 45 1023.8
20260508021552 60 223 2.0 4.0 0.00 0.02 0.02 42 1023.8
20260508020104 61 0 0.0 3.0 0.00 0.02 0.02 41 1023.7
20260508014549 62 266 2.0 6.0 0.00 0.03 0.02 38 1023.1
20260508013048 62 233 3.0 7.0 0.00 0.03 0.02 37 1022.4
20260508011553 63 0 0.0 0.0 0.00 0.03 0.02 37 1022.4
20260508010100 64 0 0.0 0.0 0.00 0.03 0.02 35 1022.1
20260508004552 65 0 0.0 0.0 0.00 0.07 0.02 34 1022.0
20260508003100 66 0 0.0 0.0 0.00 0.07 0.02 32 1021.8
20260508001556 67 0 0.0 2.0 0.00 0.07 0.02 31 1021.8
20260508000048 68 0 0.0 0.0 0.00 0.07 0.02 29 1021.9
20260507234551 68 0 0.0 0.0 0.00 0.16 0.02 27 1021.8
20260507233110 68 0 0.0 2.0 0.00 0.16 0.02 25 1021.8
20260507231553 68 344 0.0 3.0 0.00 0.16 0.02 27 1021.9
20260507230112 68 5 0.0 6.0 0.00 0.16 0.02 27 1021.9
20260507224552 68 306 0.0 6.0 0.00 0.31 0.02 26 1021.9
20260507223159 69 0 1.0 5.0 0.00 0.31 0.02 29 1021.9
20260507221554 68 0 1.0 6.0 0.00 0.31 0.02 28 1022.2
20260507220055 70 220 1.0 7.0 0.00 0.31 0.02 28 1022.4
20260507214600 65 245 0.0 8.0 0.00 0.48 0.02 30 1022.7
20260507213116 64 360 1.0 5.0 0.00 0.48 0.02 30 1023.0
20260507211551 64 0 2.0 5.0 0.00 0.48 0.02 31 1023.3
20260507204549 63 343 2.0 9.0 0.00 0.66 0.02 32 1023.7
20260507203057 63 0 0.0 4.0 0.00 0.66 0.02 34 1023.9
20260507201619 63 325 0.0 2.0 0.00 0.66 0.02 34 1024.0